User: anonymous   Login
Location: Chillicothe
(39.7950°N, 93.5520°W)
Time: 08:46:52
(UTC-06:00)
Language:

NANOSAT C BR1 - Orbit

View from above orbital plane
View from above orbital plane
View from above satellite
View from above satellite

Ground track
Ground track

The orbit data is extracted from the following two-line orbital elements,

1 40024U 14033Q   19325.24899160  .00000302  00000-0  37288-4 0  9997
2 40024  97.9170 247.3926 0010761 261.1384  98.8615 14.89937751294600
Epoch (UTC): 21 November 2019 05:58:32
Eccentricity: 0.0010761
inclination: 97.9170°
perigee height: 590 km
apogee height: 605 km
right ascension of ascending node: 247.3926°
argument of perigee: 261.1384°
revolutions per day: 14.89937751
mean anomaly at epoch: 98.8615°
orbit number at epoch: 29460

The dashed part of the orbit path shows where the satellite is in the earth's shadow,  

DLR